If you wish to contribute or participate in the discussions about articles you are invited to join SKYbrary as a registered user

 Actions

Asuncion/Silvio Pettirossi International Airport

From SKYbrary Wiki

SGAS
Airport
ICAO: SGAS – IATA: ASU
Summary
Name Asuncion/Silvio Pettirossi International Airport
Region South America and Caribbean
Territory Paraguay PY.gif
Location Luque, Central
Serving Asuncion
Elevation 89.002 m
292 ft
292 ft89.002 m
Type medium airport
Coordinates 25° 14' 23.46" S, 57° 31' 8.88" W
Runways
Designator Length Width Surface ROPS
2/20 3353 m11,000.656 ft
46 m150.919 ft
ASP yes/yes


METAR
Observation SGAS 171330Z 36010KT 320V050 CAVOK 34/23 Q1012
Station Asuncion / Aeropuerto
Date/Time 17 December 2018 13:30:00
Wind direction 360°
Wind speed 10 kts
Lowest cloud amount clouds and visibility OK
Temperature 34°C
Dew point 23°C
Humidity 52%
QNH 1012 hPa
Weather condition n/a

Maps

Terrain

Loading map...

Airport Layout

Loading map...


Accidents & Serious Incidents at or in vicinity of SGAS

None on SKYbrary